EXPRESS-AT1

Last updated on Mon Jun 22 2026 00:03:05 GMT+0000 (Coordinated Universal Time)

1 39612U 14010A 26172.47385001 .00000018 00000+0 00000+0 0 9990 2 39612 0.2700 85.5903 0003873 44.0452 13.4417 1.00304441 44861
UTC large
Height (km)
Speed (km/s)
/
Latitude / Longitude
Inclination (degrees)
Orbital Period (minutes)
Azimuth
Elevation
Range (km)
Doppler Factor

Next 0 passes for location: London (51.5072 / 0.1276)

No passes found over London.
EXPRESS-AT1